Zurück zum Katalog

BREEZE-M DEB

AktivHEO
NORAD 38559·DEBRIS·🇷🇺 Russia

Gestartet Feb 28, 2006 von Baikonur Cosmodrome

Loading…

Nächste Überflüge (nächste 24 Stunden)

TLE

AktuellSource: Space-Track

Epoche: Sep 9, 2026, 10:36 UTC

1 38559U 06006CZ  26252.44181104  .00000567  00000-0  12159-2 0  9990
2 38559  52.0764 269.6067 5002865 196.3929 344.8041  5.33284769 14137

Verfolge BREEZE-M DEB in Echtzeit mit AllMySat

Download on the App Store